Blue Ridge Airport

Jump to: basic info | weather | frequencies | runways | comments

Related pages: nearby airports | nearby navaids | notams | map

Basic information (top)

Codes: KMTV MTV
Location: lon 36.630699, lat -80.018303, elev 941 ft / 287 m msl
Status: small_airport

Weather (top)

Current conditions (rec'd 2014/09/18 07:15Z):

KMTV 180715Z AUTO 00000KT 5SM BR BKN015 BKN019 OVC036 14/14 A3000 RMK AO2 T01430143

Airport forecast for Smith Reynolds Airport 31nm (58km) SSW (rec'd 2014/09/18 06:27Z):

TAF KINT 180521Z 1806/1906 05003KT P6SM BKN035 
      TEMPO 1810/1813 4SM BR SCT010 
     FM181600 09004KT P6SM BKN045

Frequencies (top)

Verify before use: may be inaccurate or out of date.

A/D: 124.35 MHz (GREENSBORO APP/DEP)
AWOS: 118.45 MHz (AWOS 3)
CLD: 124.85 MHz (CLNC DEL)
UNIC: 122.7 MHz (CTAF/UNICOM)

Runways (top)

12/30: 5,002 x 100 ft (1,525 x 30 m) — paved — lighted

Latest comments (top)

Runway Cafe: Great little place to eat right next to ... [read]

More... (top)

See also NOTAMs and nearby airports and navaids, or visit the Blue Ridge Airport page at the main OurAirports website..